Regional Weather Roundup
Issued by NWS Newport/Morehead, NC

Home | Current Version | Previous Version | Text Only | Print | Product List | Glossary On
Versions: 1 2 3 4 5 6 7 8 9 10 11 12 13 14 15 16 17 18 19 20 21 22 23 24 25 26 27 28 29 30 31 32 33 34 35 36 37 38 39 40 41 42 43 44 45 46 47 48 49 50
000
ASUS42 KMHX 161913
RWRMHX
WEATHER ROUNDUP FOR EASTERN NORTH CAROLINA
NATIONAL WEATHER SERVICE NEWPORT/MOREHEAD CITY NC
200 PM EST SAT DEC 16 2017

NOTE: "FAIR" INDICATES FEW OR NO CLOUDS BELOW 12,000 FEET
WITH NO SIGNIFICANT WEATHER AND/OR OBSTRUCTIONS TO VISIBILITY

NCZ015>017-031-032-045>047-102-103-162000-
NORTH COAST

CITY           SKY/WX    TMP DP  RH WIND       PRES   REMARKS
EDENTON        SUNNY     47  23  39 SW5       30.22F
ELIZABETH CITY SUNNY     46  24  42 SW7       30.19F
KITTY HAWK     CLEAR     43  20  40 CALM      30.20F
MANTEO         SUNNY     43  19  38 NW3       30.22F

$$

NCZ045>047-081-094-103-104-162000-
CENTRAL COAST

CITY           SKY/WX    TMP DP  RH WIND       PRES   REMARKS
FRISCO         SUNNY     45  27  49 VRB5      30.22R

$$

NCZ095-097-098-100-101-162000-
SOUTHERN COAST

CITY           SKY/WX    TMP DP  RH WIND       PRES   REMARKS
BEAUFORT       SUNNY     46  26  45 SW8       30.23S
CEDAR ISLAND   NOT AVBL
JACKSONVILLE   SUNNY     50  26  39 W8        30.22F
PINEY ISLAND     N/A    N/A N/A N/A W10       30.22S
WILMINGTON     SUNNY     52  24  33 NW9       30.24F


$$

NCZ011>013-027>030-043-044-078>080-089-090>093-098-162000-
COASTAL PLAIN

CITY           SKY/WX    TMP DP  RH WIND       PRES   REMARKS
AHOSKIE        SUNNY     46  22  39 CALM      30.20F
CLINTON        SUNNY     49  25  39 SW5       30.24F
ELIZABETHTOWN  NOT AVBL
GOLDSBORO      SUNNY     50  22  33 SW5       30.20F
GREENVILLE     SUNNY     46  23  39 SW3       30.23F
HAVELOCK       SUNNY     48  26  42 VRB7      30.23
KENANSVILLE    SUNNY     48  23  37 NW6       30.23F
KINSTON        SUNNY     48  23  37 NW6       30.22F
NEW BERN       SUNNY     48  25  40 W6        30.23F
RICHLANDS      SUNNY     51  25  36 VRB5      30.23F
ROCKY MOUNT    SUNNY     48  24  39 CALM      30.21F
WASHINGTON     SUNNY     48  22  35 W5        30.23F
WHITEVILLE     SUNNY     49  24  37 W5        30.24F

$$

AMZ130-135-150-152-154-156-158-170-250-252-270-ANZ085-086-088-633-658-670-162000-
MARINE OBSERVATIONS

STATION/POSITION TIME  TEMP    WIND        PRES    WAVE   SWELL
                       AIR SEA DIR/SP/G            HT/PER HT/PER
                 (UTC) (F)     (DEG/KT/KT) (MB)    (FT/S) (FT/S)
CHESAPEAKE LIGHT NOT AVBL
64 E VA BEACH    1850   44 58  270/  8/ 10 1022.6    4/ 6   3/ 6
DUCK             1836   42 52  230/  6/  8 1022.5
2 E DUCK         1900      54                N/A     2/ 7
OREGON INLET     1836   44 48  310/  4/  6 1023.1
13E OREGON INLT  1848      58                N/A     3/ 6   3/ 6
HATTERAS CG      1836   41 52  300/  8/ 10 1023.3
DIAMOND BUOY     1850   46 73  280/  8/ 17 1023.5    3/ 7   3/ 7
CAPE LOOKOUT     1800          220/  3/  5 1024.1
BEAUFORT LAB     1836   44 49  200/  6/  9 1023.6
30 SE NEW RVR IN 1808   45 64  270/  2/  6 1024.2
30 SE NEW RVR IN 1900      64                N/A     3/ 7
27 SE WRIGHTSVLE 1808   46 63  340/  4/ 10 1024.4
5 SE WRIGHTSVLE  1808   45 56  160/  2/  4 1024.5
225 S CAPE HAT   1850   63 74  340/ 12/ 16 1022.4    6/ 8   5/ 8
41 SE CHARLESTON 1850   54 72   50/  6/ 10 1024.4    3/ 5   2/ 5

$$




USA.gov is the U.S. government's official web portal to all federal, state and local government web resources and services.